Location: Unspecified
(43.1763°N, 79.4719°W)
Time: 11:43:10
(UTC-04:00)

Resurs 1-4 Rocket - Visible Passes

Search period start: 26 April 2017 00:00
Search period end: 06 May 2017 00:00
Orbit: 799 x 815 km, 98.5° (Epoch: 24 April)

Date Brightness Start Highest point End Pass type
(mag) Time Alt. Az. Time Alt. Az. Time Alt. Az.
26 Apr 3.3 03:02:38 10° NNE 03:07:22 33° E 03:08:31 30° ESE visible
26 Apr 3.0 04:42:29 10° N 04:47:10 33° WNW 04:49:36 22° WSW visible
27 Apr 4.0 02:38:46 10° NE 02:42:36 20° E 02:43:44 19° ESE visible
27 Apr 2.3 04:17:37 10° N 04:22:45 54° WNW 04:24:50 33° SW visible
28 Apr 4.5 02:15:54 10° ENE 02:17:44 12° E 02:18:58 11° ESE visible
28 Apr 2.0 03:52:57 10° NNE 03:58:15 87° WNW 04:00:03 43° SSW visible
28 Apr 4.1 05:34:58 10° NNW 05:37:17 13° WNW 05:39:37 10° W visible
29 Apr 2.5 03:28:28 10° NNE 03:33:40 57° E 03:35:17 40° SSE visible
29 Apr 3.6 05:09:16 10° NNW 05:13:04 21° WNW 05:16:22 12° WSW visible
30 Apr 3.3 03:04:11 10° NNE 03:08:59 34° E 03:10:30 29° SE visible
30 Apr 3.0 04:44:07 10° N 04:48:45 32° WNW 04:51:36 19° WSW visible
01 May 3.9 02:40:17 10° NE 02:44:14 21° E 02:45:44 19° ESE visible
01 May 2.4 04:19:15 10° N 04:24:20 52° WNW 04:26:49 29° SW visible
02 May 4.5 02:17:15 10° ENE 02:19:22 12° E 02:20:57 11° ESE visible
02 May 2.0 03:54:33 10° NNE 03:59:51 84° WNW 04:02:02 37° SSW visible
02 May 4.1 05:36:42 10° NNW 05:38:52 13° WNW 05:41:01 10° W visible
03 May 2.4 03:30:03 10° NNE 03:35:16 59° E 03:37:16 36° SSE visible
03 May 3.7 05:10:55 10° NNW 05:14:38 20° WNW 05:18:21 10° WSW visible
04 May 3.3 03:05:46 10° NNE 03:10:36 36° E 03:12:28 27° SE visible
04 May 3.1 04:45:45 10° N 04:50:20 31° WNW 04:53:33 17° WSW visible
05 May 3.9 02:41:48 10° NE 02:45:51 22° E 02:47:41 18° ESE visible
05 May 2.4 04:20:51 10° N 04:25:56 50° WNW 04:28:46 25° SW visible
